Total_Precipitation_Accumulation
0.24 0.23 0.27 0.35 0.37 0.45 0.59 0.77 1.00 0.89 0.69 0.57 0.56 0.52 0.54 0.60 0.53 0.46 0.42 0.41 0.39 0.35 0.34 0.36 0.39 0.48 0.55 0.68 0.83 0.96 1.01 0.97 0.90 0.83 0.74 0.66 0.60 0.52 0.53 0.49 0.49 0.55 0.71 0.89
0.11 0.13 0.18 0.29 0.42 0.55 0.61 0.68 0.71 0.62 0.58 0.44 0.39 0.35 0.36 0.41 0.40 0.38 0.34 0.29 0.26 0.26 0.23 0.25 0.31 0.38 0.39 0.50 0.65 0.76 0.81 0.84 0.86 0.82 0.65 0.58 0.51 0.44 0.42 0.42 0.43 0.46 0.54 0.70
0.11 0.11 0.19 0.41 0.54 0.60 0.59 0.55 0.47 0.43 0.39 0.29 0.26 0.19 0.19 0.25 0.29 0.32 0.30 0.25 0.22 0.22 0.22 0.25 0.31 0.34 0.35 0.43 0.54 0.59 0.63 0.66 0.69 0.66 0.53 0.47 0.37 0.33 0.36 0.37 0.40 0.42 0.48 0.60
0.17 0.16 0.37 0.62 0.52 0.46 0.49 0.39 0.24 0.22 0.22 0.21 0.16 0.13 0.11 0.11 0.13 0.15 0.18 0.17 0.22 0.20 0.18 0.20 0.26 0.32 0.40 0.42 0.42 0.44 0.48 0.51 0.50 0.50 0.46 0.38 0.31 0.30 0.32 0.35 0.39 0.40 0.44 0.50
0.27 0.28 0.45 0.57 0.38 0.35 0.41 0.36 0.18 0.13 0.12 0.10 0.09 0.07 0.05 0.06 0.07 0.08 0.07 0.08 0.12 0.11 0.11 0.12 0.13 0.14 0.17 0.19 0.21 0.24 0.33 0.39 0.43 0.42 0.39 0.34 0.29 0.35 0.41 0.41 0.41 0.40 0.40 0.42
0.35 0.42 0.54 0.40 0.16 0.16 0.28 0.42 0.16 0.08 0.06 0.05 0.05 0.06 0.05 0.05 0.07 0.05 0.04 0.03 0.05 0.07 0.07 0.07 0.06 0.06 0.05 0.07 0.10 0.14 0.21 0.26 0.32 0.36 0.38 0.40 0.48 0.56 0.57 0.53 0.48 0.43 0.39 0.38
0.42 0.61 0.61 0.36 0.14 0.16 0.30 0.43 0.22 0.08 0.04 0.03 0.03 0.03 0.03 0.04 0.05 0.04 0.03 0.02 0.03 0.05 0.06 0.06 0.05 0.04 0.03 0.03 0.03 0.04 0.06 0.11 0.21 0.34 0.40 0.48 0.58 0.60 0.60 0.54 0.46 0.41 0.38 0.36
0.54 0.71 0.78 0.39 0.20 0.24 0.22 0.14 0.11 0.05 0.03 0.02 0.02 0.02 0.03 0.04 0.03 0.03 0.03 0.03 0.03 0.04 0.04 0.06 0.07 0.05 0.03 0.03 0.03 0.03 0.05 0.09 0.15 0.23 0.32 0.46 0.54 0.52 0.52 0.51 0.47 0.43 0.44 0.41
0.54 0.58 0.49 0.29 0.19 0.14 0.10 0.09 0.04 0.02 0.01 0.01 0.02 0.03 0.04 0.04 0.03 0.03 0.03 0.03 0.04 0.05 0.06 0.06 0.06 0.07 0.06 0.05 0.05 0.04 0.04 0.05 0.08 0.13 0.24 0.39 0.42 0.41 0.44 0.46 0.45 0.44 0.42 0.40
0.22 0.16 0.15 0.12 0.10 0.06 0.04 0.04 0.01 0.01 0.01 0.01 0.02 0.02 0.02 0.03 0.03 0.03 0.03 0.03 0.03 0.04 0.04 0.05 0.05 0.05 0.06 0.06 0.06 0.05 0.04 0.03 0.03 0.05 0.07 0.12 0.17 0.21 0.27 0.33 0.34 0.33 0.35 0.39
0.21 0.11 0.06 0.05 0.04 0.03 0.02 0.02 0.01 0.00 0.01 0.01 0.02 0.02 0.02 0.01 0.02 0.03 0.03 0.03 0.02 0.03 0.04 0.04 0.04 0.03 0.04 0.05 0.06 0.06 0.05 0.04 0.03 0.05 0.06 0.07 0.08 0.11 0.14 0.17 0.21 0.26 0.31 0.35
0.20 0.13 0.07 0.04 0.03 0.02 0.02 0.01 0.01 0.01 0.00 0.00 0.01 0.02 0.02 0.01 0.01 0.01 0.02 0.03 0.03 0.03 0.04 0.04 0.04 0.04 0.04 0.03 0.04 0.06 0.07 0.05 0.03 0.03 0.04 0.04 0.05 0.06 0.07 0.09 0.11 0.13 0.16 0.19
0.09 0.08 0.06 0.06 0.05 0.03 0.02 0.01 0.01 0.01 0.00 0.00 0.00 0.01 0.02 0.01 0.01 0.01 0.01 0.02 0.03 0.03 0.03 0.04 0.05 0.04 0.04 0.04 0.04 0.05 0.06 0.06 0.04 0.03 0.03 0.04 0.05 0.07 0.07 0.05 0.04 0.04 0.06 0.10
0.04 0.06 0.06 0.05 0.03 0.02 0.01 0.01 0.01 0.01 0.00 0.00 0.00 0.01 0.01 0.01 0.01 0.01 0.02 0.02 0.03 0.03 0.03 0.02 0.03 0.03 0.05 0.05 0.05 0.04 0.05 0.06 0.06 0.08 0.09 0.06 0.06 0.10 0.13 0.15 0.11 0.05 0.03 0.05
0.04 0.04 0.05 0.04 0.01 0.01 0.00 0.00 0.01 0.01 0.01 0.00 0.00 0.01 0.00 0.01 0.01 0.01 0.01 0.01 0.02 0.02 0.03 0.02 0.02 0.02 0.03 0.04 0.03 0.04 0.04 0.05 0.07 0.11 0.10 0.10 0.13 0.15 0.14 0.14 0.13 0.09 0.05 0.03
0.03 0.03 0.03 0.02 0.01 0.01 0.01 0.01 0.01 0.01 0.01 0.01 0.01 0.01 0.01 0.01 0.00 0.00 0.01 0.01 0.01 0.01 0.02 0.03 0.03 0.03 0.02 0.03 0.03 0.03 0.04 0.04 0.05 0.07 0.08 0.09 0.10 0.12 0.11 0.10 0.09 0.07 0.06 0.06
0.02 0.02 0.01 0.01 0.01 0.01 0.01 0.01 0.01 0.01 0.01 0.01 0.02 0.01 0.01 0.01 0.00 0.00 0.00 0.01 0.01 0.01 0.01 0.02 0.04 0.04 0.03 0.02 0.03 0.03 0.03 0.04 0.04 0.05 0.05 0.05 0.05 0.06 0.07 0.07 0.06 0.05 0.04 0.04
0.02 0.02 0.02 0.01 0.01 0.01 0.01 0.01 0.01 0.01 0.01 0.02 0.02 0.01 0.01 0.01 0.01 0.01 0.01 0.01 0.01 0.01 0.01 0.01 0.02 0.04 0.04 0.03 0.03 0.03 0.04 0.04 0.04 0.05 0.07 0.07 0.05 0.05 0.06 0.07 0.07 0.06 0.06 0.06
0.03 0.03 0.02 0.02 0.01 0.01 0.02 0.02 0.01 0.01 0.01 0.02 0.02 0.02 0.02 0.02 0.02 0.02 0.02 0.02 0.01 0.01 0.01 0.01 0.01 0.02 0.03 0.03 0.03 0.04 0.04 0.05 0.06 0.06 0.07 0.07 0.07 0.07 0.08 0.08 0.08 0.09 0.10 0.11
0.05 0.04 0.04 0.03 0.03 0.02 0.02 0.02 0.02 0.02 0.01 0.02 0.02 0.02 0.02 0.02 0.01 0.01 0.01 0.02 0.02 0.02 0.02 0.02 0.02 0.02 0.03 0.05 0.06 0.05 0.05 0.06 0.07 0.09 0.09 0.09 0.10 0.10 0.09 0.09 0.10 0.11 0.12 0.13
0.07 0.06 0.05 0.05 0.05 0.04 0.04 0.04 0.03 0.03 0.03 0.03 0.03 0.03 0.02 0.01 0.01 0.01 0.02 0.02 0.02 0.03 0.03 0.04 0.04 0.04 0.05 0.07 0.08 0.07 0.06 0.06 0.07 0.09 0.10 0.12 0.13 0.14 0.14 0.13 0.13 0.13 0.14 0.14
0.08 0.08 0.07 0.06 0.06 0.06 0.06 0.06 0.06 0.05 0.05 0.05 0.04 0.04 0.03 0.03 0.03 0.03 0.03 0.04 0.04 0.05 0.05 0.06 0.06 0.07 0.09 0.10 0.09 0.09 0.09 0.09 0.09 0.10 0.12 0.13 0.15 0.18 0.19 0.18 0.17 0.16 0.16 0.18
0.08 0.08 0.08 0.07 0.07 0.07 0.07 0.07 0.08 0.07 0.07 0.07 0.07 0.06 0.06 0.07 0.07 0.07 0.08 0.08 0.08 0.09 0.09 0.09 0.10 0.11 0.12 0.11 0.11 0.10 0.10 0.12 0.13 0.14 0.15 0.16 0.16 0.19 0.22 0.23 0.22 0.21 0.21 0.22
0.10 0.09 0.08 0.07 0.07 0.08 0.09 0.10 0.10 0.10 0.10 0.10 0.10 0.10 0.10 0.11 0.11 0.12 0.12 0.12 0.12 0.12 0.10 0.11 0.12 0.13 0.13 0.11 0.13 0.15 0.15 0.15 0.16 0.18 0.20 0.23 0.22 0.22 0.25 0.26 0.28 0.28 0.28 0.28
0.13 0.11 0.09 0.09 0.10 0.12 0.14 0.13 0.11 0.10 0.10 0.10 0.10 0.10 0.10 0.11 0.12 0.13 0.14 0.14 0.15 0.14 0.13 0.13 0.16 0.17 0.15 0.14 0.17 0.19 0.20 0.20 0.22 0.22 0.22 0.24 0.25 0.26 0.27 0.28 0.29 0.31 0.32 0.32
0.10 0.09 0.08 0.08 0.09 0.10 0.10 0.10 0.10 0.11 0.10 0.10 0.11 0.11 0.11 0.12 0.13 0.14 0.15 0.14 0.15 0.16 0.14 0.13 0.13 0.14 0.14 0.16 0.18 0.20 0.22 0.23 0.23 0.23 0.23 0.26 0.28 0.29 0.31 0.33 0.33 0.35 0.36 0.36
0.08 0.08 0.07 0.07 0.06 0.07 0.08 0.09 0.10 0.12 0.13 0.15 0.16 0.17 0.16 0.17 0.17 0.17 0.15 0.14 0.14 0.16 0.16 0.17 0.16 0.16 0.17 0.19 0.20 0.21 0.22 0.23 0.23 0.24 0.26 0.28 0.31 0.34 0.35 0.35 0.37 0.39 0.42 0.43